Location: Carter Cabin
(41.0271°N, 122.9339°W)
Time: 01:43:45
(UTC+00:00)

ARIANE 5 R/B - Visible Passes

Search period start: 19 July 2024 00:00
Search period end: 29 July 2024 00:00
Orbit: 747 x 794 km, 98.8° (Epoch: 18 July)

Date Brightness Start Highest point End Pass type
(mag) Time Alt. Az. Time Alt. Az. Time Alt. Az.
19 Jul 5.5 12:04:29 10° ENE 12:06:11 11° E 12:07:54 10° ESE visible
24 Jul 5.2 12:24:36 10° NE 12:28:14 19° E 12:31:51 10° SE visible
27 Jul 5.3 12:18:13 10° NE 12:21:24 16° E 12:24:36 10° SE visible
